Weather History for Chadron, NE

Change the Weather History Date:

Thursday, July 3, 2014

  Actual Average Record
Temperature  
Mean Temperature 70 °F 71 °F  
Max Temperature 89 °F 88 °F 106 °F (1936)
Min Temperature 51 °F 55 °F 43 °F (1972)
Degree Days  
Heating Degree Days 0 1  
Month to date heating degree days 7 3  
Since 1 June heating degree days 90 84  
Since 1 July heating degree days 7 3  
Cooling Degree Days 5 7  
Month to date cooling degree days 5 21  
Year to date cooling degree days 90 149  
Since 1 June cooling degree days 59 129  
Growing Degree Days 20 (Base 50)    
Moisture  
Dew Point 54 °F    
Average Humidity 59    
Maximum Humidity 89    
Minimum Humidity 29    
Precipitation  
Precipitation 0.00 in 0.07 in 1.63 in (1919)
Month to date precipitation 0.00 0.21  
Year to date precipitation 11.13 10.39  
Sea Level Pressure  
Sea Level Pressure 30.01 in    
Wind  
Wind Speed 10 mph (SE)    
Max Wind Speed 24 mph    
Max Gust Speed 32 mph    
Visibility 10 miles    
Events      
T = Trace of Precipitation, MM = Missing Value Source: NWS Daily Summary

Daily Weather History Graph

Daily Weather History Graph

Search for Another Location

Airport:

Trip Planner

Search our weather history database for the weather conditions in past years. The results will help you decide how hot, cold, wet, or windy it might be!

Date:

Astronomy

Jul. 03, 2014 Rise Set
Actual Time 5:18 AM MDT 8:34 PM MDT
Civil Twilight 4:43 AM MDT 9:09 PM MDT
Nautical Twilight 3:58 AM MDT 9:54 PM MDT
Astronomical Twilight 3:03 AM MDT 10:49 PM MDT
Moon 11:29 AM MDT (7/3) 11:47 PM MDT (7/3)
Length of Visible Light 16h 25m
Length of Day
15h 15m
Waxing Crescent, 33% of the Moon is Illuminated
Jul 3
Waxing Crescent
Jul 5
First Quarter
Jul 12
Full
Jul 18
Last Quarter
Jul 26
New

Hourly Weather History & Observations

Time (MDT) Temp. Heat Index Dew Point Humidity Pressure Visibility Wind Dir Wind Speed Gust Speed Precip Events Conditions
12:53 AM 55.0 °F - 50.0 °F 83% 30.09 in 10.0 mi NNE 4.6 mph - N/A   Clear
1:53 AM 54.0 °F - 48.9 °F 83% 30.07 in 10.0 mi Calm Calm - N/A   Clear
2:53 AM 54.0 °F - 48.9 °F 83% 30.05 in 10.0 mi NNE 5.8 mph - N/A   Clear
3:53 AM 53.1 °F - 48.9 °F 86% 30.04 in 10.0 mi Calm Calm - N/A   Clear
4:53 AM 53.1 °F - 50.0 °F 89% 30.05 in 10.0 mi Calm Calm - N/A   Clear
5:53 AM 51.1 °F - 48.9 °F 92% 30.06 in 10.0 mi NNE 3.5 mph - N/A   Clear
6:53 AM 57.0 °F - 51.1 °F 81% 30.07 in 10.0 mi NE 3.5 mph - N/A   Clear
8:53 AM 71.1 °F - 57.0 °F 61% 30.05 in 10.0 mi Calm Calm - N/A   Clear
9:53 AM 75.9 °F - 59.0 °F 56% 30.04 in 10.0 mi North - - N/A   Clear
10:53 AM 81.0 °F 81.3 °F 59.0 °F 47% 30.03 in 10.0 mi SSW 15.0 mph - N/A   Clear
11:53 AM 84.0 °F 83.0 °F 55.9 °F 38% 30.02 in 10.0 mi South 15.0 mph - N/A   Clear
1:53 PM 87.1 °F 84.9 °F 53.1 °F 31% 30.00 in 10.0 mi SSE 16.1 mph 27.6 mph N/A   Clear
2:53 PM 88.0 °F - 51.1 °F 28% 30.00 in 10.0 mi SE 11.5 mph 19.6 mph N/A   Clear
3:53 PM 88.0 °F - 51.1 °F 28% 29.98 in 10.0 mi SE 10.4 mph - N/A   Clear
4:53 PM 88.0 °F - 51.1 °F 28% 29.96 in 10.0 mi ESE 12.7 mph - N/A   Clear
5:53 PM 87.1 °F - 52.0 °F 30% 29.95 in 10.0 mi SE 10.4 mph - N/A   Clear
6:53 PM 84.9 °F 83.9 °F 57.0 °F 38% 29.95 in 10.0 mi SSE 9.2 mph - N/A   Clear
7:53 PM 78.1 °F - 60.1 °F 54% 29.95 in 10.0 mi SE 9.2 mph - N/A   Clear
8:53 PM 73.9 °F - 60.1 °F 62% 29.94 in 10.0 mi SE 8.1 mph - N/A   Clear
9:53 PM 78.1 °F - 61.0 °F 56% 29.95 in 10.0 mi SSE 19.6 mph 27.6 mph N/A   Clear
10:53 PM 75.9 °F - 62.1 °F 62% 29.94 in 10.0 mi SSE 18.4 mph 28.8 mph N/A   Clear
11:53 PM 73.9 °F - 62.1 °F 66% 29.94 in 10.0 mi SSE 23.0 mph 28.8 mph N/A   Clear